Regional Weather Roundup
Issued by NWS

Current Version | Previous Version | Text Only | Print | Product List | Glossary On
Versions: 1 2 3 4 5 6 7 8 9 10 11 12 13 14 15 16 17 18 19 20 21 22 23 24 25 26 27 28 29 30 31 32 33 34 35 36 37 38 39 40 41 42 43 44 45 46 47 48 49 50
000
ASUS46 KSTO 171115
RWRCA

NORTHERN AND CENTRAL CA REGIONAL WEATHER ROUNDUP
NATIONAL WEATHER SERVICE SACRAMENTO CA
400 AM PDT WED APR 17 2024

NOTE: FAIR INDICATES FEW OR NO CLOUDS BELOW 12,000 FEET WITH NO
SIGNIFICANT WEATHER AND/OR OBSTRUCTIONS TO VISIBILITY.

CAZ001-003-171200-
NORTHWEST AREA

CITY           SKY/WX    TMP DP  RH WIND       PRES   REMARKS
CRESCENT CITY  CLEAR     43  43 100 CALM      30.24R FOG
UKIAH          PTCLDY    51  45  79 CALM      30.09S
$$

CAZ006-505>513-171200-
BAY AREA

CITY           SKY/WX    TMP DP  RH WIND       PRES   REMARKS
SANTA ROSA     FOG       45  45 100 CALM      30.05F VSB 1
SAN RAFAEL     N/A       51  MM  MM MISG
NAPA           PTCLDY    50  48  93 N3        30.04F
CONCORD        PTCLDY    55  49  80 CALM      30.04F
OAKLAND CITY   N/A       56  MM  MM MISG
OAKLAND        PTCLDY    52  51  97 CALM      30.05F
SAN FRAN CITY  N/A       53  MM  83 MISG
SAN FRAN ARPT  MOCLDY    54  47  77 CALM      30.04F
LIVERMORE      PTCLDY    51  47  86 E3        30.04F
HAYWARD        PTCLDY    56  48  74 CALM      30.04F
REDWOOD CITY   N/A       51  MM  88 MISG
MOFFETT ARPT   MOCLDY    54  50  87 CALM      30.05S
SAN JOSE ARPT    N/A     57  49  74 CALM      30.05
$$
CAZ034-037-514>518-171200-
CENTRAL COAST

CITY           SKY/WX    TMP DP  RH WIND       PRES   REMARKS
WATSONVILLE    MOCLDY    50  49  96 CALM      30.05F
SALINAS        MOCLDY    50  49  96 CALM      30.05S
MONTEREY       MOCLDY    51  49  92 CALM      30.05S
SAN LUIS OBISP CLEAR     52  47  83 CALM      30.01S
SANTA MARIA    CLEAR     48  48 100 CALM      30.00F
HALF MOON BAY  CLOUDY    46  46 100 CALM      30.06S
$$
CAZ015-016-171200-
NORTHERN SACRAMENTO VALLEY

CITY           SKY/WX    TMP DP  RH WIND       PRES   REMARKS
REDDING        CLEAR     60  42  51 N6        30.06S
RED BLUFF      PTCLDY    52  44  74 NW7       30.07R
OROVILLE       CLEAR     55  50  83 N3        30.05F
$$
CAZ016>018-171200-
SOUTHERN SACRAMENTO VALLEY

CITY           SKY/WX    TMP DP  RH WIND       PRES   REMARKS
AUBURN         CLEAR     54  46  76 E6        30.07S
BEALE AFB      PTCLDY    57  50  76 NE3       30.03S
LINCOLN        PTCLDY    50  50 100 E5        30.03S
MARYSVILLE     PTCLDY    53  48  83 CALM      30.04S
SAC INTL ARPT  PTCLDY    53  50  89 CALM      30.03S
MATHER AIRPORT CLEAR     54  52  94 NE3       30.02S
DOWNTOWN SAC   N/A       56  MM  MM MISG
SAC EXEC ARPT  PTCLDY    53  50  89 CALM      30.04S
VACAVILLE      PTCLDY    52  51  97 CALM      30.04S
TRAVIS AFB     PTCLDY    52  49  90 W3        30.02S
$$
CAZ019>021-171200-
SAN JOAQUIN VALLEY

CITY           SKY/WX    TMP DP  RH WIND       PRES   REMARKS
STOCKTON       PTCLDY    53  50  89 CALM      30.03S
MODESTO        PTCLDY    51  50  96 SE5       30.04R
MERCED         PTCLDY    50  48  93 CALM      30.04S
FRESNO         PTCLDY    58  54  86 CALM      30.05F
HANFORD        PTCLDY    53  50  89 CALM      30.06S FOG
PORTERVILLE    CLEAR     51  49  92 SW6       30.07S FOG
BAKERSFIELD    CLEAR     59  51  75 E7        30.05S
$$
CAZ011-012-071-171200-
NORTHERN MOUNTAINS

CITY           SKY/WX    TMP DP  RH WIND       PRES   REMARKS
YREKA          CLEAR     39  30  70 N12       30.23R WCI  32
MOUNT SHASTA   CLEAR     39  29  67 CALM      30.17R
ALTURAS        CLEAR     34  27  75 N7        30.20R WCI  28
$$
CAZ011-012-071-171200-
SIERRA NEVADA MTNS

CITY           SKY/WX    TMP DP  RH WIND       PRES   REMARKS
BLUE CANYON    CLEAR     48  30  49 CALM      30.18S
TRUCKEE        CLEAR     30  30 100 CALM      30.20R FOG
TAHOE VLY ARPT CLEAR     31  26  82 S5        30.17F WCI  26
MAMMOTH LAKES  PTCLDY    30  21  68 CALM      30.23R
$$



USA.gov is the U.S. government's official web portal to all federal, state and local government web resources and services.